Terminal Aerodrome Forecast
Issued by NWS Pittsburgh, PA

Current Version | Previous Version | Graphics & Text | Print | Product List | Glossary On
Versions: 1 2 3 4 5 6 7 8 9 10 11 12 13 14 15 16 17 18 19 20 21 22 23 24 25 26 27 28 29 30 31
000
FTUS41 KPBZ 270539
TAFPIT
TAF
KPIT 270539Z 2706/2812 11008KT P6SM -RA BKN060
     FM270900 12012KT 3SM -RA BR OVC010 WS020/13040KT
     FM271800 15017G22KT P6SM VCTS BKN015CB
     FM280000 20010KT P6SM VCSH OVC015=

USA.gov is the U.S. government's official web portal to all federal, state and local government web resources and services.